Showing default

COSMOS 1894, 18443

Orbit data source: Space-Track

COSMOS 1894, 18443 is a payload satellite owned by PVO (CIS) in GEO that was launched on Wed, 28 Oct 1987 UTC via a PROTON-K/DM-2 launch vehicle from the Tyuratam Missile And Space Complex (TTMTR). Payload-class satellites include a variety of spacecraft equipped with specific instruments for various scientific and technological missions. These include communications satellites like Starlink; space stations such as the ISS; scientific satellites like the Hubble; Earth observation satellites from companies like Planet Labs, Umbra, and HawkEye 360; GPS; miniature CubeSats for education and research; and military/defense satellites.

Loading next visibility...
Identifier
18443, 1987-091A
Orbit
GEO
Country
Flag of CISCIS
Related business
Manufacturer
NPOL/KOMET
Mission
Defense Early Warn
Bus & Motor
OKO, Unknown motor
Mass
~1,250 kg wet, ~1,150 kg dry
Launch date (UTC)
1987-10-28 (39 years ago)
Launch vehicle
PROTON-K/DM-2
Launch site
Tyuratam Missile And Space Complex (TTMTR)
Object type
Payload
Rocket body
Debris
Shape & HBR
Cyl + 2 Pan, 2.5 m
Radar Cross Section
6.333 m², Large (>1 m²)

Expand to show TLE details & history
Last TLE update: 19 hours ago

TLE from 19 hours ago
0 COSMOS 1894
1 18443U 87091A   26255.07299406 -.00000283  00000-0  00000-0 0  9996
2 18443  10.6345 325.0074 0002822  21.3209 353.8478  1.00225789121694
Epoch: 2026-09-12T01:45Z
TLE epoch observation values (Epoch: 2026-09-12T01:45:06.686Z)
Latitude
2.76628°
Longitude
-37.42243°
Altitude
35,786.808 km
Speed
3.075 km/s
True Right ascension
22h 39m 46s
True Declination
2° 45' 49"
Sunlit
Object was in daylight at epoch
Visualization orbit readout
Latitude
Unknown
Longitude
Unknown
Altitude
Unknown
Speed
Unknown
Apparent Right ascension
Unknown
Apparent Declination
Unknown
Sunlit
N/A
Visualization observer readout
Local Sidereal Time
13:11:46
Azimuth
Unknown
Elevation
Unknown
Doppler factor
Unknown
Orbital elements
Apogee altitude
35,812.414 km
Perigee altitude
35,788.608 km
Semi-major axis
42,178.648 km
Eccentricity
0.00028
Inclination
10.6345°
RAAN
325.0074°
Arg. of periapsis
21.3209°
True anomaly
353.84433°
Mean anomaly
353.8478°
Eccentric anomaly
353.84607°
Mean motion
0.25056 °/min
Orbital period
1,436.81 mins
BSTAR
0
Loading maneuver chart data...
Computing Atmospheric mass density...
Loading historical data...
Loading historical data...
Loading historical data...
Loading historical data...
Loading historical data...
Loading historical data...
Loading historical data...

Documentation

Showing up to 5 results
|